Темпы

Россия / Московская область     56°38′04″N   37°17′48″E
темп.,
°C
ветер,
м/с
пор.,
м/с
влажн.,
%
обл.,
%
осадки,
мм/ч
давл.,
гПа
погр.,
м
23 апреля, пт
пт2300:00+7ююв3128954 0.0 1014278
03:00+6ююв3109444 0.0 1013269
06:00+6ююв4129413 0.0 1013320
09:00+11ю5127478 0.0 1013826
12:00+14ю7125887 0.3 10111810
15:00+13ююз61364100 2.1 10111750
18:00+6з3786100 0.7 1012505
21:00+5юв2293100 4.6 1013222
24 апреля, сб
сб2400:00+4ююв1197100 0.0 101141
03:00+4юв1296100 0.1 1010104
06:00+4ю1296100 3.5 1008599
09:00+4сз2496100 5.9 1007548
12:00+4сз2596100 2.1 1006693
15:00+5ссз3584100 3.3 1006604
18:00+6сз2482100 0.2 1006668
21:00+3зсз389297 0.4 1006374
25 апреля, вс
вс2500:00+2зсз411855 0.0 1006458
03:000з412855 0.0 1006397
06:000зюз4109378 0.0 1006523
09:00+2з4981100 0.0 10071154
12:00+5з5957100 0.1 10071795
15:00+8зюз6940100 0.1 10072343
18:00+7зюз485074 0.1 10071648
21:00+1юз39775 0.1 1008203
26 апреля, пн
пн2600:000юз39865 0.0 1009234
03:00−1юз310875 0.0 1009285
06:000юз39865 0.0 1009368
09:00+5зюз576475 0.0 10091165
12:00+5зюз5665100 0.1 10101370
15:00+5зюз4660100 0.3 10101391
18:00+6ююз35576 0.1 10091346
21:00+1юз22775 0.1 100928
27 апреля, вт
вт2700:00−1юз23845 0.0 100941
03:00−1зюз23905 0.0 100848
06:00−1юз24835 0.0 1008125
09:00+5зюз35535 0.0 10071135
12:00+8зюз453895 0.0 10062217
15:00+8з4638100 0.0 10052277
18:00+7з4651100 0.1 1005899
21:00+3зюз247347 0.1 100572